Wind_Speed
69 70 72 74 76 78 80 81 81 81 79 78 77 77 77 76 75 74 74 73 73 73 74 74 75 76 77 78 79 79 80 80 81 81 81 81 82 82 82 81 81 81
70 72 73 74 76 78 79 81 82 83 83 82 81 80 79 78 76 74 73 73 73 73 73 74 75 76 78 79 80 81 81 82 82 83 83 83 83 83 83 83 83 83
71 71 72 73 75 77 78 79 80 81 81 82 82 82 82 82 79 77 75 74 73 73 73 74 75 76 77 79 80 82 82 83 83 84 84 84 85 85 85 85 84 85
73 72 72 72 73 75 77 78 79 79 79 80 81 82 83 83 82 81 80 79 78 78 77 76 76 76 77 79 80 82 84 85 85 85 85 85 85 85 85 85 85 85
76 75 74 73 73 74 76 77 78 79 80 80 80 81 82 83 83 83 84 84 84 84 84 83 82 81 81 80 81 82 84 86 87 88 88 88 88 88 87 87 86 85
78 77 76 76 76 77 78 79 80 80 81 82 83 83 84 84 84 85 85 86 86 87 88 88 88 87 86 85 84 85 85 86 87 88 89 90 90 90 90 89 88 86
79 79 78 79 80 82 83 84 84 85 85 86 86 86 86 86 86 86 86 86 86 87 88 89 89 90 90 89 89 90 90 90 89 89 89 89 90 90 90 90 89 86
83 83 83 84 85 86 86 87 87 88 88 88 88 88 88 88 88 87 87 86 87 87 88 89 90 91 92 93 94 94 95 95 95 94 92 91 90 90 90 91 91 90
88 88 88 88 87 88 88 88 88 89 89 90 90 90 90 90 90 90 90 89 89 89 89 89 90 91 92 93 94 95 96 97 98 98 97 95 93 92 91 91 91 92
89 90 90 90 90 90 90 90 90 91 91 91 92 92 92 93 93 93 93 93 92 92 92 93 93 93 92 93 93 94 95 96 98 100 99 98 96 95 93 92 92 91
91 92 92 93 93 93 93 93 93 93 94 94 94 95 95 96 97 97 97 97 97 97 97 97 97 97 97 96 96 97 97 97 98 100 101 101 100 98 96 95 95 94
93 94 95 95 96 96 97 97 97 97 97 97 98 98 99 100 100 101 101 101 101 102 102 102 102 101 101 101 101 101 101 101 101 101 102 103 103 103 101 100 99 98
95 95 96 97 97 98 99 99 100 100 100 100 100 101 101 101 102 102 102 102 102 102 102 103 103 103 104 105 106 106 106 106 106 105 105 105 106 106 106 106 105 104
96 96 97 97 98 98 98 98 99 99 99 98 98 98 99 99 99 99 99 99 99 99 100 100 100 101 101 103 104 106 108 109 109 109 109 109 109 109 110 110 110 109
96 96 95 95 95 94 94 93 93 92 92 91 91 91 91 92 92 93 93 94 94 94 95 95 96 96 96 97 99 101 103 105 107 109 110 111 111 111 111 112 112 113
93 92 91 90 89 88 87 86 85 84 83 83 82 82 82 83 83 84 85 86 86 87 88 88 89 90 90 91 93 95 97 99 101 103 105 108 109 111 111 112 112 113
84 83 81 80 79 78 77 76 76 75 74 74 73 73 74 75 75 76 76 77 79 80 81 82 83 83 85 86 88 90 92 94 96 98 99 101 103 106 108 109 110 111
74 73 72 71 70 69 68 68 68 67 68 68 68 68 69 70 70 71 72 73 75 76 76 77 77 78 80 82 83 85 87 90 92 94 95 96 98 100 102 104 106 107
68 67 66 65 65 64 64 64 64 65 66 66 67 68 68 69 70 71 72 73 75 75 76 75 76 77 79 80 81 82 84 86 88 89 90 92 93 94 96 97 99 102
65 64 63 63 63 63 64 65 66 67 68 69 69 70 71 71 72 73 74 75 76 77 76 75 76 77 78 79 79 81 82 83 84 84 85 86 87 88 90 92 94 96
62 62 62 62 63 65 66 67 69 70 70 71 72 72 72 73 73 73 74 74 75 75 75 74 74 76 77 77 78 79 80 81 81 81 81 82 82 83 85 87 88 89
61 62 63 65 66 67 68 69 70 71 71 72 72 71 72 72 72 72 73 73 73 74 75 74 74 76 77 77 78 78 79 79 80 80 79 79 78 78 80 81 82 83
63 64 66 67 68 69 70 70 70 70 70 70 70 70 70 70 71 71 73 74 74 74 75 74 73 74 75 75 74 75 76 77 77 76 75 74 73 73 74 75 77 78
65 67 68 69 69 69 69 69 68 68 68 69 69 68 69 70 71 72 73 73 73 72 72 71 70 69 70 70 69 70 70 70 69 67 66 65 64 64 66 67 69 71
67 68 69 69 69 69 68 68 67 67 67 68 68 69 69 70 72 72 71 70 69 68 68 67 65 63 63 64 63 63 63 62 60 57 56 55 55 55 56 58 60 62
68 69 69 69 69 68 67 67 67 67 67 68 68 69 69 70 70 69 67 66 65 64 62 61 60 58 59 60 59 57 56 54 52 50 50 50 51 52 53 55 57 59
Wind_Direction
264 266 267 268 268 269 270 271 273 274 276 277 277 277 277 276 275 275 274 272 270 268 265 264 263 263 262 262 261 260 259 259 258 258 258 258 258 258 259 259 260 260
266 267 268 268 268 268 268 268 269 270 271 273 274 275 276 276 276 275 274 273 271 270 268 266 264 263 262 262 262 262 262 261 260 259 259 259 259 259 259 260 260 260
269 270 269 269 269 269 268 268 267 267 268 268 269 271 272 273 273 273 273 272 271 270 269 268 267 266 264 263 263 263 263 262 262 261 260 260 260 260 260 260 260 260
274 274 273 271 270 270 270 270 270 269 269 269 269 269 270 270 270 271 271 272 271 271 270 270 268 267 266 265 265 264 264 263 263 262 262 261 261 261 261 261 261 261
278 277 277 275 274 272 272 272 272 272 272 271 271 270 270 270 270 270 270 270 271 271 271 272 271 270 268 267 266 265 265 264 264 263 263 263 262 262 262 262 262 262
278 278 277 276 275 275 274 274 274 273 273 273 273 272 271 270 270 270 270 270 270 270 270 271 272 272 271 270 269 268 267 265 264 263 263 262 262 262 262 262 263 263
279 278 277 277 276 276 276 276 276 276 276 275 275 275 274 273 272 272 271 270 269 269 269 269 269 270 270 270 271 271 271 269 267 265 263 262 261 261 261 260 260 260
279 279 279 278 278 277 277 277 277 277 277 277 277 276 276 276 275 274 273 272 271 270 269 268 268 267 268 268 269 269 270 270 270 269 267 265 263 262 260 260 259 258
280 280 280 279 279 278 278 277 277 277 277 276 276 276 275 275 275 274 274 273 273 272 271 270 269 268 267 267 267 267 266 267 268 268 268 268 266 265 263 261 260 259
280 280 280 280 280 279 279 278 278 277 277 276 276 276 275 275 274 274 273 272 272 272 271 271 270 270 269 268 267 266 265 265 265 265 266 266 266 266 265 264 263 262
281 281 281 281 281 281 280 280 279 279 278 278 277 277 277 277 276 276 275 274 273 273 272 271 270 270 269 268 268 267 266 264 264 263 264 264 264 264 264 265 265 264
282 282 282 282 282 282 282 282 281 281 280 280 279 279 279 279 278 278 278 277 276 276 275 273 272 271 270 269 268 267 266 265 264 263 262 262 262 262 263 263 264 264
283 283 283 283 283 283 283 283 283 283 282 282 281 281 280 280 279 279 278 278 277 277 276 275 274 273 272 271 270 269 268 267 265 264 262 261 261 261 261 262 262 262
284 284 285 285 285 285 284 284 284 284 283 283 282 282 281 281 280 279 279 278 278 277 276 275 275 274 273 272 271 270 269 268 267 266 264 263 261 260 260 260 260 261
286 286 286 286 286 286 285 285 285 284 284 284 283 283 282 282 281 280 280 279 278 277 277 276 275 274 273 272 271 270 269 268 267 266 265 264 263 262 261 260 260 259
287 287 287 286 286 286 286 286 286 286 286 285 285 285 284 283 283 282 281 280 279 278 278 277 277 276 275 274 273 272 270 269 267 266 265 265 264 263 262 261 260 260
288 287 287 287 287 287 287 287 287 287 287 287 287 286 286 285 285 284 283 282 281 280 279 279 278 278 277 277 276 275 274 272 270 268 267 266 265 264 263 263 262 261
287 287 287 287 288 288 288 288 288 288 288 287 287 286 286 285 285 285 284 283 282 282 281 280 280 279 278 278 277 277 276 275 274 272 271 269 268 266 265 264 263 262
286 286 287 287 288 288 288 288 288 288 288 287 287 286 286 286 285 285 285 284 284 283 283 282 282 281 280 279 278 277 277 276 275 275 274 273 271 270 268 267 265 264
287 287 288 288 289 289 290 290 290 290 290 289 289 288 288 287 287 286 286 286 285 285 285 284 284 283 281 280 279 278 277 277 276 275 275 274 273 272 271 270 268 267
289 289 290 290 291 291 291 291 291 291 291 290 290 290 289 289 288 288 287 287 287 286 286 286 285 284 283 282 281 280 279 279 278 276 275 274 273 273 272 272 271 270
290 291 291 292 292 292 292 292 292 292 291 291 291 290 290 290 290 289 289 288 288 288 288 288 287 286 285 284 283 282 281 280 279 278 278 277 276 275 274 274 273 272
291 292 292 292 293 293 293 292 292 292 291 291 291 291 291 291 291 290 290 290 290 290 290 289 288 287 286 285 285 284 282 281 281 281 280 280 279 277 276 274 273 272
292 292 293 293 293 293 293 292 292 292 292 292 291 291 291 291 291 291 291 291 292 291 290 289 289 288 287 286 285 284 283 282 282 282 281 281 279 278 277 276 274 273
292 293 293 294 294 293 293 292 292 292 292 292 292 292 292 292 292 292 293 293 293 292 291 291 290 289 288 287 286 284 283 283 282 282 282 281 281 280 279 279 278 276
292 293 294 294 294 293 293 293 293 293 293 293 293 294 294 294 294 294 295 295 294 293 292 292 291 291 290 289 287 285 283 282 282 282 283 283 283 283 282 281 280 279
Height
5695 5694 5693 5691 5689 5688 5686 5684 5683 5681 5680 5679 5678 5678 5678 5677 5677 5676 5676 5676 5676 5675 5675 5674 5673 5672 5671 5670 5670 5669 5669 5669 5669 5669 5670 5670 5669 5669 5669 5670 5670 5671
5686 5685 5684 5682 5681 5679 5678 5676 5675 5673 5672 5670 5669 5668 5667 5667 5666 5666 5665 5665 5664 5664 5663 5663 5663 5662 5662 5661 5660 5659 5659 5658 5658 5658 5659 5659 5658 5659 5659 5659 5660 5660
5676 5675 5674 5672 5670 5669 5667 5666 5665 5665 5663 5662 5661 5659 5658 5657 5656 5655 5655 5655 5654 5653 5653 5652 5651 5651 5651 5650 5650 5649 5648 5648 5647 5647 5648 5647 5647 5648 5648 5648 5650 5650
5665 5664 5663 5662 5660 5658 5657 5655 5654 5654 5654 5653 5652 5650 5649 5647 5646 5645 5643 5643 5642 5642 5641 5641 5641 5640 5639 5639 5638 5638 5637 5637 5636 5637 5637 5636 5635 5636 5637 5637 5638 5639
5654 5653 5652 5650 5649 5648 5647 5645 5644 5643 5642 5642 5641 5640 5639 5638 5636 5635 5634 5632 5631 5630 5629 5628 5628 5627 5627 5627 5627 5626 5626 5625 5625 5625 5625 5625 5624 5624 5625 5625 5626 5627
5642 5641 5640 5639 5638 5636 5635 5634 5633 5632 5631 5630 5629 5628 5628 5627 5626 5625 5624 5622 5621 5619 5617 5616 5614 5614 5613 5613 5613 5613 5613 5613 5613 5612 5613 5613 5613 5613 5613 5613 5615 5616
5630 5630 5629 5627 5626 5625 5623 5622 5621 5620 5618 5617 5616 5615 5615 5614 5614 5613 5613 5612 5610 5608 5607 5605 5603 5602 5600 5599 5599 5598 5598 5598 5598 5599 5599 5600 5600 5601 5601 5601 5602 5604
5618 5617 5616 5615 5614 5613 5612 5610 5608 5607 5606 5604 5603 5602 5601 5601 5600 5600 5599 5599 5598 5596 5595 5594 5592 5591 5589 5588 5586 5585 5584 5583 5582 5582 5583 5585 5586 5587 5588 5588 5589 5591
5606 5605 5603 5602 5601 5600 5599 5597 5596 5595 5593 5592 5590 5589 5588 5587 5586 5586 5585 5584 5584 5583 5582 5581 5580 5579 5578 5576 5575 5573 5572 5571 5569 5568 5568 5569 5570 5571 5572 5573 5574 5577
5594 5592 5590 5589 5587 5586 5585 5584 5583 5581 5580 5578 5577 5576 5574 5573 5572 5571 5570 5570 5569 5568 5568 5567 5566 5566 5565 5564 5562 5560 5559 5558 5557 5556 5555 5556 5556 5557 5558 5558 5559 5562
5581 5579 5577 5575 5573 5572 5570 5569 5568 5567 5565 5564 5563 5561 5560 5558 5556 5555 5554 5554 5553 5553 5552 5551 5551 5550 5550 5549 5548 5546 5544 5544 5543 5543 5542 5542 5543 5544 5544 5544 5545 5547
5568 5566 5564 5562 5559 5557 5555 5553 5552 5551 5550 5548 5547 5546 5544 5542 5541 5539 5537 5537 5536 5535 5534 5534 5534 5534 5533 5533 5531 5529 5528 5528 5528 5529 5529 5529 5530 5530 5531 5531 5532 5534
5554 5552 5550 5548 5546 5543 5540 5538 5536 5535 5533 5532 5530 5529 5527 5526 5524 5523 5521 5520 5519 5518 5517 5516 5516 5516 5516 5514 5513 5511 5510 5510 5511 5512 5513 5514 5515 5516 5517 5517 5518 5520
5541 5539 5537 5534 5531 5528 5526 5523 5521 5519 5518 5516 5514 5512 5510 5509 5507 5506 5505 5504 5502 5501 5499 5498 5498 5498 5498 5495 5493 5491 5490 5490 5492 5493 5495 5497 5499 5501 5502 5503 5504 5505
5528 5526 5523 5520 5516 5514 5511 5509 5507 5505 5503 5502 5500 5498 5496 5494 5493 5491 5490 5488 5486 5484 5483 5481 5480 5481 5480 5476 5473 5472 5472 5471 5472 5474 5475 5477 5479 5482 5485 5486 5488 5489
5515 5512 5509 5506 5503 5500 5498 5496 5495 5493 5491 5489 5487 5485 5483 5481 5480 5478 5476 5474 5472 5470 5468 5467 5465 5465 5463 5458 5455 5453 5452 5452 5454 5455 5457 5458 5460 5463 5466 5468 5469 5470
5502 5499 5496 5494 5491 5489 5487 5486 5484 5482 5480 5478 5476 5474 5472 5470 5468 5466 5464 5461 5458 5457 5456 5454 5454 5452 5447 5443 5441 5438 5434 5433 5434 5437 5440 5441 5442 5444 5447 5450 5452 5452
5492 5489 5487 5484 5482 5480 5478 5477 5475 5473 5470 5469 5467 5465 5462 5460 5458 5455 5453 5450 5446 5444 5444 5443 5442 5439 5434 5431 5429 5425 5421 5417 5417 5420 5422 5424 5426 5427 5429 5431 5433 5434
5483 5481 5479 5476 5474 5472 5470 5468 5466 5463 5461 5459 5457 5455 5452 5451 5448 5445 5442 5439 5435 5433 5432 5432 5430 5426 5421 5419 5416 5413 5409 5405 5404 5405 5406 5407 5409 5410 5410 5411 5413 5414
5475 5472 5470 5468 5465 5463 5461 5459 5456 5454 5451 5448 5447 5445 5442 5440 5437 5435 5432 5428 5424 5421 5420 5420 5417 5412 5408 5406 5403 5400 5396 5393 5392 5393 5392 5393 5394 5393 5392 5393 5394 5395
5465 5463 5461 5459 5457 5454 5452 5449 5446 5443 5441 5438 5436 5433 5431 5428 5426 5423 5420 5417 5413 5409 5408 5408 5405 5398 5395 5393 5389 5386 5383 5380 5379 5379 5378 5379 5380 5379 5377 5377 5378 5378
5456 5454 5452 5449 5447 5445 5442 5439 5436 5433 5430 5427 5425 5423 5420 5417 5414 5411 5408 5405 5402 5398 5395 5395 5393 5386 5381 5379 5376 5372 5369 5367 5365 5365 5365 5365 5367 5366 5364 5363 5363 5362
5447 5445 5442 5440 5438 5435 5432 5429 5426 5424 5420 5417 5414 5412 5409 5406 5403 5400 5397 5393 5391 5387 5383 5382 5381 5375 5369 5366 5364 5359 5356 5353 5352 5352 5352 5352 5352 5351 5349 5348 5348 5346
5438 5435 5433 5431 5428 5425 5422 5420 5417 5414 5410 5407 5404 5402 5400 5396 5392 5390 5387 5382 5379 5376 5371 5369 5368 5364 5357 5354 5352 5348 5343 5341 5340 5340 5340 5339 5339 5338 5336 5335 5334 5332
5429 5426 5424 5421 5419 5416 5413 5410 5407 5404 5401 5398 5394 5391 5389 5386 5382 5379 5377 5372 5368 5365 5360 5356 5355 5353 5348 5343 5341 5337 5333 5331 5330 5330 5330 5328 5328 5327 5326 5324 5323 5321
5420 5417 5415 5412 5409 5406 5403 5400 5397 5394 5391 5388 5385 5381 5378 5375 5371 5368 5366 5363 5358 5354 5351 5346 5343 5342 5338 5333 5330 5327 5323 5322 5321 5321 5321 5319 5318 5318 5317 5315 5314 5312